GW5415 Weather Reports


time (UTC)temp
C
wind
direction
speed
KPH
gust
KPH
rain 1hr
cm
rain 24hr
cm
rain mn
cm
humidity
%
barometer
mb
20260504013506 12 87 0.0 0.0 0.00 0.00 0.00 68 1016.1
20260504013001 12 87 0.0 0.0 0.00 0.00 0.00 67 1016.1
20260504012500 12 87 0.0 0.0 0.00 0.00 0.00 67 1015.8
20260504011957 12 87 0.0 0.0 0.00 0.00 0.00 66 1016.1
20260504011453 12 87 0.0 0.0 0.00 0.00 0.00 66 1015.7
20260504010949 12 87 0.0 0.0 0.00 0.00 0.00 66 1015.9
20260504010446 12 87 0.0 0.0 0.00 0.00 0.00 64 1015.9
20260504005942 13 87 0.0 0.0 0.00 0.00 0.00 62 1016.1
20260504005439 13 87 0.0 0.0 0.00 0.00 0.00 60 1015.9
20260504004936 14 87 0.0 0.0 0.00 0.00 0.00 60 1015.8
20260504004434 15 87 0.0 0.0 0.00 0.00 0.00 57 1015.6
20260504003930 15 87 0.0 0.0 0.00 0.00 0.00 55 1015.6
20260504003427 15 88 0.0 0.0 0.00 0.00 0.00 55 1015.7
20260504002924 15 87 0.0 0.0 0.00 0.00 0.00 56 1015.6
20260504002420 15 87 0.0 0.0 0.00 0.00 0.00 55 1015.7
20260504001918 16 87 0.0 0.0 0.00 0.00 0.00 53 1015.6
20260504001416 16 87 0.0 0.0 0.00 0.00 0.00 50 1015.8
20260504000912 16 88 0.0 0.0 0.00 0.00 0.00 49 1015.5
20260504000409 16 85 0.0 0.0 0.00 0.00 0.00 49 1015.6
20260503235906 17 84 0.0 0.0 0.00 0.00 0.00 48 1015.7
20260503235404 17 75 0.0 0.0 0.00 0.00 0.00 47 1015.5
20260503234901 17 84 0.0 1.6 0.00 0.00 0.00 48 1015.8
20260503234359 17 152 0.0 1.6 0.00 0.00 0.00 46 1015.8
20260503233856 17 82 0.0 0.0 0.00 0.00 0.00 46 1015.9
20260503233353 17 79 0.0 0.0 0.00 0.00 0.00 45 1015.7
20260503232849 17 78 0.0 0.0 0.00 0.00 0.00 45 1015.8
20260503232347 17 78 0.0 0.0 0.00 0.00 0.00 45 1015.9
20260503231844 18 83 0.0 0.0 0.00 0.00 0.00 43 1016.0
20260503231341 18 73 1.6 3.2 0.00 0.00 0.00 42 1015.9
20260503230837 18 83 0.0 1.6 0.00 0.00 0.00 42 1016.1
20260503230334 18 151 3.2 3.2 0.00 0.00 0.00 41 1016.1
20260503225832 18 86 1.6 1.6 0.00 0.00 0.00 42 1016.0
20260503225328 18 82 0.0 1.6 0.00 0.00 0.00 41 1016.1
20260503224824 18 104 3.2 3.2 0.00 0.00 0.00 42 1016.2
20260503224321 19 66 3.2 3.2 0.00 0.00 0.00 40 1016.1
20260503223819 19 85 0.0 0.0 0.00 0.00 0.00 40 1016.4
20260503223317 20 83 0.0 0.0 0.00 0.00 0.00 38 1016.2
20260503222812 20 87 1.6 1.6 0.00 0.00 0.00 38 1016.3
20260503222311 20 75 0.0 0.0 0.00 0.00 0.00 38 1016.4
20260503221809 20 110 3.2 4.8 0.00 0.00 0.00 39 1016.4
20260503221307 20 65 3.2 3.2 0.00 0.00 0.00 37 1016.4
20260503220802 20 73 1.6 1.6 0.00 0.00 0.00 38 1016.4
20260503220259 21 54 4.8 9.7 0.00 0.00 0.00 36 1016.5
20260503215756 20 121 1.6 3.2 0.00 0.00 0.00 36 1016.4
20260503215253 20 89 1.6 1.6 0.00 0.00 0.00 36 1016.6
20260503214751 20 59 1.6 1.6 0.00 0.00 0.00 40 1016.6
20260503214248 20 81 0.0 1.6 0.00 0.00 0.00 36 1016.5
20260503213746 20 85 1.6 1.6 0.00 0.00 0.00 37 1016.5
20260503213243 20 48 3.2 3.2 0.00 0.00 0.00 37 1016.8
20260503212739 20 71 1.6 3.2 0.00 0.00 0.00 39 1016.6
20260503212237 20 86 0.0 1.6 0.00 0.00 0.00 37 1016.9
20260503211735 20 90 1.6 3.2 0.00 0.00 0.00 38 1017.0
20260503211231 20 78 3.2 4.8 0.00 0.00 0.00 35 1017.0
20260503210726 20 118 1.6 3.2 0.00 0.00 0.00 39 1017.1
20260503210224 20 133 4.8 4.8 0.00 0.00 0.00 36 1017.1
20260503205719 20 68 1.6 3.2 0.00 0.00 0.00 36 1017.1
20260503205216 20 82 0.0 1.6 0.00 0.00 0.00 37 1017.0
20260503204712 20 182 4.8 6.4 0.00 0.00 0.00 34 1017.4
20260503204210 20 70 1.6 1.6 0.00 0.00 0.00 35 1017.3
20260503203707 20 93 3.2 3.2 0.00 0.00 0.00 40 1017.5
20260503203205 20 79 1.6 1.6 0.00 0.00 0.00 37 1017.5
20260503202701 20 118 3.2 3.2 0.00 0.00 0.00 39 1017.6
20260503202159 20 100 4.8 6.4 0.00 0.00 0.00 37 1017.4
20260503201657 20 88 0.0 1.6 0.00 0.00 0.00 40 1017.4
20260503201155 20 93 1.6 1.6 0.00 0.00 0.00 36 1017.9
20260503200650 20 77 0.0 1.6 0.00 0.00 0.00 39 1017.9
20260503200147 21 88 1.6 1.6 0.00 0.00 0.00 37 1018.0
20260503195644 20 62 0.0 1.6 0.00 0.00 0.00 42 1018.2
20260503195141 20 58 1.6 3.2 0.00 0.00 0.00 35 1018.2
20260503194638 20 83 0.0 0.0 0.00 0.00 0.00 34 1018.3
20260503194133 19 90 1.6 3.2 0.00 0.00 0.00 37 1018.4
20260503193630 18 45 1.6 3.2 0.00 0.00 0.00 39 1018.4
20260503193126 18 71 1.6 1.6 0.00 0.00 0.00 43 1018.7
20260503192622 18 118 6.4 6.4 0.00 0.00 0.00 37 1018.5
20260503192117 18 74 0.0 0.0 0.00 0.00 0.00 40 1018.6
20260503191615 18 65 3.2 3.2 0.00 0.00 0.00 40 1018.4
20260503191111 19 59 0.0 1.6 0.00 0.00 0.00 38 1018.6
20260503190609 18 67 3.2 3.2 0.00 0.00 0.00 37 1018.6
20260503190106 18 57 4.8 6.4 0.00 0.00 0.00 36 1018.6
20260503185602 18 95 3.2 4.8 0.00 0.00 0.00 42 1018.8
20260503185102 18 68 1.6 1.6 0.00 0.00 0.00 38 1018.8
20260503184557 18 95 1.6 3.2 0.00 0.00 0.00 35 1019.0
20260503184054 18 75 1.6 1.6 0.00 0.00 0.00 37 1019.0
20260503183551 18 21 4.8 6.4 0.00 0.00 0.00 40 1019.1
20260503183048 17 88 0.0 0.0 0.00 0.00 0.00 41 1019.0
20260503182546 17 72 0.0 0.0 0.00 0.00 0.00 43 1019.2
20260503182044 17 52 3.2 3.2 0.00 0.00 0.00 40 1019.4
20260503181541 18 101 0.0 1.6 0.00 0.00 0.00 39 1019.4
20260503181037 17 72 0.0 1.6 0.00 0.00 0.00 38 1019.4
20260503180535 17 84 0.0 1.6 0.00 0.00 0.00 43 1019.5
20260503180032 16 85 3.2 3.2 0.00 0.00 0.00 39 1019.5
20260503175529 17 94 6.4 6.4 0.00 0.00 0.00 40 1019.5
20260503175026 17 69 1.6 1.6 0.00 0.00 0.00 37 1019.6
20260503174524 17 77 1.6 1.6 0.00 0.00 0.00 42 1019.6
20260503174020 17 140 3.2 4.8 0.00 0.00 0.00 44 1019.6
20260503173515 17 78 1.6 3.2 0.00 0.00 0.00 43 1020.1
20260503173011 17 76 0.0 1.6 0.00 0.00 0.00 44 1019.8
20260503172509 17 46 3.2 4.8 0.00 0.00 0.00 44 1020.1
20260503172006 16 61 1.6 3.2 0.00 0.00 0.00 41 1020.1
20260503171502 16 74 0.0 0.0 0.00 0.00 0.00 45 1020.0
20260503171000 16 85 3.2 3.2 0.00 0.00 0.00 40 1020.0
20260503170456 16 94 1.6 1.6 0.00 0.00 0.00 35 1020.2
20260503150848 15 68 0.0 0.0 0.00 0.00 0.00 47 1021.2
20260503150344 14 81 0.0 0.0 0.00 0.00 0.00 47 1021.1
20260503140309 13 65 1.6 3.2 0.00 0.00 0.00 60 1021.1
20260503131238 11 66 3.2 3.2 0.00 0.00 0.00 69 1021.0
20260503130736 11 65 0.0 1.6 0.00 0.00 0.00 67 1020.9
20260503130233 11 65 1.6 3.2 0.00 0.00 0.00 69 1021.2
20260503120159 6 65 0.0 0.0 0.00 0.00 0.00 94 1020.9
20260503110626 3 65 0.0 0.0 0.00 0.00 0.00 97 1019.8
20260503110124 3 65 0.0 0.0 0.00 0.00 0.00 97 1019.7
20260503081439 5 66 0.0 0.0 0.00 0.00 0.00 95 1018.5
20260503080937 5 66 0.0 0.0 0.00 0.00 0.00 95 1018.4
20260503080433 5 66 0.0 0.0 0.00 0.00 0.00 95 1018.2
20260503072909 6 66 0.0 0.0 0.00 0.00 0.00 92 1018.0
20260503072407 6 66 0.0 0.0 0.00 0.00 0.00 91 1018.0
20260503071903 6 66 0.0 0.0 0.00 0.00 0.00 91 1017.9
20260503071401 6 66 0.0 0.0 0.00 0.00 0.00 90 1017.7
20260503070856 6 66 0.0 0.0 0.00 0.00 0.00 89 1017.9
20260503070354 7 66 0.0 0.0 0.00 0.00 0.00 89 1017.7
20260503060320 6 66 0.0 0.0 0.00 0.00 0.00 90 1017.6
20260503054807 6 65 0.0 0.0 0.00 0.00 0.00 89 1017.5
20260503054303 7 65 0.0 0.0 0.00 0.00 0.00 88 1017.5
20260503053801 7 65 0.0 0.0 0.00 0.00 0.00 86 1017.7
20260503053300 7 66 0.0 0.0 0.00 0.00 0.00 86 1017.6
20260503052755 7 66 0.0 0.0 0.00 0.00 0.00 85 1017.6
20260503052253 7 66 1.6 1.6 0.00 0.00 0.00 85 1017.4
20260503051748 7 65 0.0 0.0 0.00 0.00 0.00 84 1017.5
20260503051246 7 65 0.0 0.0 0.00 0.00 0.00 85 1017.5
20260503050742 7 65 0.0 0.0 0.00 0.00 0.00 83 1017.5
20260503050238 7 65 0.0 0.0 0.00 0.00 0.00 83 1017.5
20260503045736 7 65 0.0 0.0 0.00 0.00 0.00 82 1017.6
20260503045234 7 65 0.0 0.0 0.00 0.00 0.00 82 1017.5
20260503044730 7 65 0.0 0.0 0.00 0.00 0.00 82 1017.5
20260503044227 8 65 0.0 0.0 0.00 0.00 0.00 80 1017.4
20260503043724 8 65 0.0 0.0 0.00 0.00 0.00 79 1017.4
20260503043221 8 65 0.0 0.0 0.00 0.00 0.00 78 1017.4
20260503042717 8 65 0.0 0.0 0.00 0.00 0.00 78 1017.4
20260503042214 8 65 0.0 0.0 0.00 0.00 0.00 75 1017.2
20260503041710 9 65 0.0 0.0 0.00 0.00 0.00 74 1017.4
20260503041208 9 65 0.0 0.0 0.00 0.00 0.00 74 1017.1
20260503040705 10 65 0.0 1.6 0.00 0.00 0.00 73 1017.2
20260503040203 10 63 0.0 0.0 0.00 0.00 0.00 72 1017.2
20260503035659 10 64 0.0 1.6 0.00 0.00 0.00 71 1017.1
20260503035157 10 63 0.0 0.0 0.00 0.00 0.00 72 1017.0
20260503034654 10 63 0.0 0.0 0.00 0.00 0.00 70 1017.1
20260503034151 10 64 0.0 0.0 0.00 0.00 0.00 69 1017.1
20260503033648 11 64 1.6 1.6 0.00 0.00 0.00 68 1017.1
20260503033145 11 76 0.0 0.0 0.00 0.00 0.00 67 1017.0
20260503032644 11 69 0.0 0.0 0.00 0.00 0.00 66 1016.9
20260503032142 11 68 1.6 3.2 0.00 0.00 0.00 66 1017.1
20260503031639 11 70 4.8 6.4 0.00 0.00 0.00 65 1017.1
20260503031137 11 3 3.2 4.8 0.00 0.00 0.00 65 1017.1
20260503030632 11 80 6.4 6.4 0.00 0.00 0.00 65 1017.2
20260503030129 11 87 3.2 6.4 0.00 0.00 0.00 65 1017.1
20260503025626 11 22 1.6 1.6 0.00 0.00 0.00 65 1017.0
20260503025124 12 68 1.6 1.6 0.00 0.00 0.00 63 1017.0
20260503024620 12 74 9.7 12.9 0.00 0.00 0.00 61 1016.9
20260503024117 12 11 1.6 3.2 0.00 0.00 0.00 60 1016.9
20260503023614 12 89 4.8 4.8 0.00 0.00 0.00 57 1016.6
20260503023112 12 53 1.6 3.2 0.00 0.00 0.00 56 1016.5
20260503022607 12 324 1.6 3.2 0.00 0.00 0.00 55 1016.3
20260503022102 12 80 1.6 3.2 0.00 0.00 0.00 56 1016.4
20260503021600 12 62 1.6 1.6 0.00 0.00 0.00 58 1016.2
20260503021056 11 76 0.0 0.0 0.00 0.00 0.00 61 1016.3
20260503020553 11 76 0.0 0.0 0.00 0.00 0.00 62 1016.3
20260503020050 11 76 0.0 0.0 0.00 0.00 0.00 63 1016.2
20260503015547 12 90 0.0 0.0 0.00 0.00 0.00 61 1016.0
20260503015044 11 70 0.0 0.0 0.00 0.00 0.00 59 1016.0
20260503014540 11 72 0.0 0.0 0.00 0.00 0.00 59 1015.9
20260503014038 11 73 0.0 0.0 0.00 0.00 0.00 61 1015.7